Location: Usti nad Orlici
(49.9830°N, 16.4000°E)
Time: 14:40:15
(UTC+02:00)

ISS - Pass Details

Date: 31 March 2019
Orbit: 408 x 410 km, 51.6° (Epoch: 24 April)

Event Time Altitude Azimuth Distance (km) Brightness Sun altitude
Rises 21:00:33 0° 284° (WNW) 2,339 1.7 -15.6°
Reaches altitude 10° 21:02:39 10° 285° (WNW) 1,476 0.3 -15.9°
Maximum altitude 21:05:58 78° 13° (NNE) 422 -3.8 -16.3°
Enters shadow 21:06:55 43° 92° (E) 589 -3.5 -16.5°
